TimeEDT,TemperatureF,Dew PointF,Humidity,Sea Level PressureIn,VisibilityMPH,Wind Direction,Wind SpeedMPH,Gust SpeedMPH,PrecipitationIn,Events,Conditions,WindDirDegrees,DateUTC
12:14 AM,73.9,69.1,85,29.90,10.0,NNE,5.8,-,N/A,,Scattered Clouds,20,2013-09-27 04:14:00
12:53 AM,73.0,69.1,87,29.90,9.0,NNE,4.6,-,N/A,,Clear,20,2013-09-27 04:53:00
1:53 AM,72.0,69.1,91,29.90,9.0,North,5.8,-,N/A,,Clear,10,2013-09-27 05:53:00
2:53 AM,72.0,69.1,91,29.90,9.0,North,6.9,-,N/A,,Clear,360,2013-09-27 06:53:00
3:36 AM,71.1,69.1,93,29.89,8.0,NNW,5.8,-,N/A,,Partly Cloudy,340,2013-09-27 07:36:00
3:53 AM,71.1,69.1,93,29.89,8.0,NNW,5.8,-,N/A,,Scattered Clouds,330,2013-09-27 07:53:00
4:00 AM,71.1,69.1,93,29.89,8.0,NNW,6.9,-,N/A,,Mostly Cloudy,340,2013-09-27 08:00:00
4:18 AM,71.1,69.1,93,29.89,8.0,NNW,8.1,-,N/A,,Mostly Cloudy,340,2013-09-27 08:18:00
4:25 AM,71.1,69.1,93,29.89,7.0,NNW,9.2,-,N/A,,Mostly Cloudy,340,2013-09-27 08:25:00
4:37 AM,71.1,69.1,93,29.89,8.0,North,5.8,-,N/A,,Mostly Cloudy,350,2013-09-27 08:37:00
4:53 AM,71.1,69.1,93,29.88,9.0,North,6.9,-,N/A,,Overcast,360,2013-09-27 08:53:00
5:06 AM,71.1,69.1,93,29.89,9.0,North,8.1,-,N/A,,Overcast,10,2013-09-27 09:06:00
5:20 AM,71.1,69.1,93,29.89,8.0,North,10.4,-,N/A,,Overcast,360,2013-09-27 09:20:00
5:39 AM,71.1,69.1,93,29.90,7.0,North,9.2,-,N/A,,Overcast,360,2013-09-27 09:39:00
5:53 AM,71.1,69.1,93,29.90,7.0,North,8.1,-,N/A,,Overcast,360,2013-09-27 09:53:00
6:46 AM,71.1,69.1,93,29.92,8.0,NNW,9.2,-,N/A,,Overcast,330,2013-09-27 10:46:00
6:53 AM,71.1,69.1,93,29.92,7.0,NNW,9.2,-,N/A,,Overcast,330,2013-09-27 10:53:00
7:05 AM,71.1,69.1,93,29.93,7.0,NNW,9.2,-,N/A,,Overcast,340,2013-09-27 11:05:00
7:53 AM,71.1,69.1,93,29.93,5.0,NNW,8.1,-,N/A,,Overcast,330,2013-09-27 11:53:00
8:00 AM,71.1,69.1,93,29.94,4.0,NNW,11.5,-,N/A,,Overcast,340,2013-09-27 12:00:00
8:53 AM,72.0,70.0,93,29.95,5.0,NNW,8.1,-,N/A,,Overcast,340,2013-09-27 12:53:00
9:20 AM,72.0,69.1,91,29.96,7.0,North,11.5,-,N/A,,Overcast,360,2013-09-27 13:20:00
9:34 AM,73.0,69.1,87,29.96,7.0,North,11.5,-,N/A,,Overcast,350,2013-09-27 13:34:00
9:53 AM,73.0,69.1,87,29.96,8.0,North,9.2,-,N/A,,Overcast,360,2013-09-27 13:53:00
10:02 AM,73.9,69.1,85,29.97,8.0,North,10.4,-,N/A,,Overcast,360,2013-09-27 14:02:00
10:20 AM,73.9,69.1,85,29.97,9.0,North,11.5,-,N/A,,Overcast,350,2013-09-27 14:20:00
10:41 AM,75.0,69.1,82,29.97,10.0,North,10.4,-,N/A,,Overcast,350,2013-09-27 14:41:00
10:53 AM,75.0,69.1,82,29.96,10.0,North,10.4,-,N/A,,Overcast,360,2013-09-27 14:53:00
11:53 AM,80.1,70.0,71,29.95,10.0,NNW,8.1,-,N/A,,Scattered Clouds,340,2013-09-27 15:53:00
12:14 PM,79.0,70.0,74,29.95,10.0,NNW,9.2,-,N/A,,Mostly Cloudy,340,2013-09-27 16:14:00
12:40 PM,82.0,70.0,67,29.95,10.0,North,11.5,-,N/A,,Mostly Cloudy,360,2013-09-27 16:40:00
12:53 PM,82.0,69.1,65,29.94,10.0,North,10.4,-,N/A,,Overcast,10,2013-09-27 16:53:00
1:53 PM,80.1,69.1,69,29.93,10.0,North,10.4,-,N/A,,Overcast,10,2013-09-27 17:53:00
2:53 PM,81.0,68.0,65,29.91,10.0,NNE,12.7,-,N/A,,Overcast,20,2013-09-27 18:53:00
3:53 PM,81.0,66.9,62,29.90,10.0,NE,16.1,-,N/A,,Overcast,50,2013-09-27 19:53:00
4:53 PM,82.0,66.9,60,29.91,10.0,ENE,18.4,26.5,N/A,,Overcast,60,2013-09-27 20:53:00
5:53 PM,81.0,66.9,62,29.91,10.0,NNE,10.4,-,N/A,,Overcast,30,2013-09-27 21:53:00
6:53 PM,79.0,66.9,66,29.93,10.0,NE,9.2,-,N/A,,Overcast,50,2013-09-27 22:53:00
7:53 PM,75.9,66.9,74,29.94,10.0,NE,6.9,-,N/A,,Overcast,40,2013-09-27 23:53:00
8:53 PM,75.9,68.0,76,29.96,10.0,NNE,9.2,-,N/A,,Overcast,30,2013-09-28 00:53:00
9:53 PM,75.0,69.1,82,29.98,10.0,NE,9.2,-,N/A,,Overcast,50,2013-09-28 01:53:00
10:53 PM,73.9,71.1,91,29.99,10.0,North,5.8,-,0.00,,Overcast,10,2013-09-28 02:53:00
11:53 PM,73.0,70.0,90,29.98,10.0,North,4.6,-,N/A,,Scattered Clouds,10,2013-09-28 03:53:00